Venice, Italy

3:28 PM CET on December 12, 2017 (GMT +0100)
Tessera

Weather History for LIPZ - April, 2013

Change the Weather History Date:

Monday, April 1, 2013

  Actual Average Record
Temperature  
Mean Temperature 46 °F -  
Max Temperature 50 °F 61 °F 68 °F (1999)
Min Temperature 41 °F 46 °F 39 °F (2002)
Degree Days  
Heating Degree Days 20    
Moisture  
Dew Point 37 °F    
Average Humidity 69    
Maximum Humidity 81    
Minimum Humidity 58    
Precipitation  
Precipitation 0.00 in 0.08 in - ()
Sea Level Pressure  
Sea Level Pressure 29.68 in    
Wind  
Wind Speed 7 mph ()    
Max Wind Speed 13 mph    
Max Gust Speed -    
Visibility 6.2 miles    
Events      
Averages and records for this station are not official NWS values.
T = Trace of Precipitation, MM = Missing Value Source: Averaged Metar Reports

Daily Weather History Graph

Daily Weather History Graph

Search for Another Location

Airport or City:

Trip Planner

Search our weather history database for the weather conditions in past years. The results will help you decide how hot, cold, wet, or windy it might be!

Date:

Astronomy

Apr. 01, 2013 Rise Set
Actual Time 6:50 AM CEST 7:38 PM CEST
Civil Twilight 6:21 AM CEST 8:08 PM CEST
Nautical Twilight 5:45 AM CEST 8:44 PM CEST
Astronomical Twilight 5:08 AM CEST 9:21 PM CEST
Moon 12:42 AM CEST (4/1) 10:07 AM CEST (4/1)
Length of Visible Light 13h 47m
Length of Day
12h 47m
Waning Gibbous, 70% of the Moon is Illuminated
Apr 1
Waning Gibbous
Apr 3
Last Quarter
Apr 10
New
Apr 18
First Quarter
Apr 25
Full

Hourly Weather History & Observations

Time (CEST) Temp. Windchill Dew Point Humidity Pressure Visibility Wind Dir Wind Speed Gust Speed Precip Events Conditions
12:20 AM 48.2 °F - 37.4 °F 66% 29.59 in - North 5.8 mph - N/A   Clear
1:20 AM 46.4 °F 45.2 °F 39.2 °F 76% 29.62 in - Variable 3.5 mph - N/A   Clear
1:50 AM 46.4 °F 43.5 °F 37.4 °F 71% 29.62 in - NNE 5.8 mph - N/A   Clear
2:20 AM 46.4 °F 44.3 °F 37.4 °F 71% 29.65 in - North 4.6 mph - N/A   Clear
2:50 AM 46.4 °F 42.9 °F 35.6 °F 66% 29.62 in 6.2 mi NNE 6.9 mph - N/A   Scattered Clouds
3:20 AM 46.4 °F 42.9 °F 37.4 °F 71% 29.62 in 6.2 mi NNE 6.9 mph - N/A   Scattered Clouds
3:50 AM 44.6 °F 38.4 °F 37.4 °F 76% 29.65 in 6.2 mi NE 12.7 mph - N/A   Scattered Clouds
4:20 AM 44.6 °F 38.8 °F 35.6 °F 71% 29.65 in 6.2 mi NE 11.5 mph - N/A   Scattered Clouds
4:50 AM 42.8 °F 37.0 °F 35.6 °F 76% 29.65 in 6.2 mi NNE 10.4 mph - N/A   Scattered Clouds
5:20 AM 42.8 °F 36.6 °F 35.6 °F 76% 29.65 in 6.2 mi NE 11.5 mph - N/A   Scattered Clouds
5:50 AM 42.8 °F 37.5 °F 35.6 °F 76% 29.65 in 6.2 mi NNE 9.2 mph - N/A   Scattered Clouds
6:20 AM 42.8 °F 39.3 °F 35.6 °F 76% 29.65 in 6.2 mi North 5.8 mph - N/A   Scattered Clouds
6:50 AM 41.0 °F 38.0 °F 35.6 °F 81% 29.65 in - North 4.6 mph - N/A   Clear
7:20 AM 41.0 °F 36.4 °F 35.6 °F 81% 29.65 in - North 6.9 mph - N/A   Clear
7:50 AM 41.0 °F 37.1 °F 33.8 °F 76% 29.68 in - North 5.8 mph - N/A   Clear
8:20 AM 41.0 °F 38.0 °F 35.6 °F 81% 29.68 in - North 4.6 mph - N/A   Clear
8:50 AM 44.6 °F 40.2 °F 35.6 °F 71% 29.68 in - North 8.1 mph - N/A   Clear
9:50 AM 46.4 °F 41.9 °F 33.8 °F 62% 29.68 in - NE 9.2 mph - N/A   Clear
10:20 AM 46.4 °F 41.5 °F 35.6 °F 66% 29.68 in - NE 10.4 mph - N/A   Clear
10:50 AM 46.4 °F 41.9 °F 33.8 °F 62% 29.68 in - NE 9.2 mph - N/A   Clear
11:20 AM 48.2 °F - 33.8 °F 58% 29.71 in - ENE 10.4 mph - N/A   Clear
11:50 AM 48.2 °F - 35.6 °F 62% 29.71 in - ENE 9.2 mph - N/A   Clear
12:20 PM 48.2 °F - 35.6 °F 62% 29.71 in - ENE 10.4 mph - N/A   Clear
12:50 PM 50.0 °F - 35.6 °F 58% 29.71 in 6.2 mi ENE 8.1 mph - N/A   Mostly Cloudy
1:20 PM 48.2 °F - 35.6 °F 62% 29.71 in 6.2 mi East 9.2 mph - N/A   Mostly Cloudy
1:50 PM 48.2 °F - 35.6 °F 62% 29.71 in 6.2 mi ENE 9.2 mph - N/A   Mostly Cloudy
2:20 PM 50.0 °F - 37.4 °F 62% 29.71 in 6.2 mi East 8.1 mph - N/A   Mostly Cloudy
2:50 PM 48.2 °F - 35.6 °F 62% 29.71 in 6.2 mi ENE 8.1 mph - N/A   Mostly Cloudy
3:20 PM 50.0 °F - 37.4 °F 62% 29.71 in 6.2 mi ENE 8.1 mph - N/A   Mostly Cloudy
3:50 PM 50.0 °F - 37.4 °F 62% 29.71 in 6.2 mi ENE 6.9 mph - N/A   Mostly Cloudy
4:20 PM 48.2 °F - 37.4 °F 66% 29.71 in 6.2 mi ENE 5.8 mph - N/A   Mostly Cloudy
4:50 PM 50.0 °F - 39.2 °F 66% 29.68 in 6.2 mi ENE 6.9 mph - N/A   Mostly Cloudy
5:20 PM 50.0 °F - 37.4 °F 62% 29.68 in 6.2 mi ENE 6.9 mph - N/A   Mostly Cloudy
5:50 PM 50.0 °F - 39.2 °F 66% 29.68 in 6.2 mi ENE 6.9 mph - N/A   Mostly Cloudy
6:20 PM 50.0 °F - 39.2 °F 66% 29.68 in 6.2 mi East 4.6 mph - N/A   Scattered Clouds
6:50 PM 50.0 °F - 39.2 °F 66% 29.68 in 6.2 mi ENE 4.6 mph - N/A   Scattered Clouds
7:20 PM 50.0 °F - 39.2 °F 66% 29.68 in 6.2 mi East 4.6 mph - N/A   Scattered Clouds
7:50 PM 48.2 °F - 39.2 °F 71% 29.68 in 6.2 mi East 4.6 mph - N/A   Scattered Clouds
8:20 PM 48.2 °F - 41.0 °F 76% 29.68 in - East 4.6 mph - N/A   Clear
8:50 PM 48.2 °F - 39.2 °F 71% 29.68 in - ENE 5.8 mph - N/A   Clear
9:20 PM 46.4 °F 42.9 °F 39.2 °F 76% 29.68 in - NE 6.9 mph - N/A   Clear
9:50 PM 46.4 °F 43.5 °F 39.2 °F 76% 29.71 in - NE 5.8 mph - N/A   Clear
10:20 PM 46.4 °F 43.5 °F 39.2 °F 76% 29.71 in - NNE 5.8 mph - N/A   Clear
10:50 PM 46.4 °F 41.9 °F 37.4 °F 71% 29.68 in - NE 9.2 mph - N/A   Clear
11:20 PM 44.6 °F 40.2 °F 35.6 °F 71% 29.68 in - NNE 8.1 mph - N/A   Clear
11:50 PM 44.6 °F 39.7 °F 35.6 °F 71% 29.68 in - NNE 9.2 mph - N/A   Clear